Probability
2 1 0 0 0 0 0 0 0 0 0 0 0 0 0 0 0 0 0 0 0 0 0 0 0 0 0 0 0 0 0 0 0 0 0 0 0 0 0 0 0 0 1 0 0 0 0 0 0
2 1 0 0 0 0 0 0 0 0 0 0 0 0 0 0 0 0 0 0 0 0 0 0 0 0 0 0 0 0 0 0 0 0 0 0 0 0 0 0 0 1 1 1 0 0 0 0 0
1 0 0 0 0 0 0 0 0 0 0 0 0 0 0 0 0 0 0 0 0 0 0 0 0 0 0 0 0 0 0 0 0 0 0 0 0 0 0 0 0 1 1 1 0 0 0 0 0
0 0 0 0 0 0 0 0 0 0 0 0 0 0 0 0 0 0 0 0 0 0 0 0 0 0 0 0 0 0 0 0 0 0 0 0 0 0 0 0 0 0 0 0 0 0 0 0 0
0 0 0 0 0 0 0 0 0 0 0 0 0 0 0 0 0 0 0 0 0 0 0 0 0 1 1 0 0 0 0 0 0 0 0 0 0 0 0 0 0 0 0 0 0 0 0 0 0
0 0 0 0 0 0 0 0 0 0 0 0 0 0 0 0 0 0 0 0 0 0 0 0 0 1 1 0 0 0 0 0 0 0 0 0 0 0 0 0 0 0 0 0 0 0 0 0 0
0 0 0 0 0 0 0 0 0 0 0 0 0 0 0 0 0 0 0 0 0 0 0 0 0 1 1 0 0 0 0 0 0 0 0 0 0 0 0 0 0 0 0 0 0 0 0 0 0
0 0 0 0 0 0 0 0 0 0 0 0 0 0 0 0 0 0 0 0 0 0 0 0 0 0 0 0 0 0 1 1 1 0 0 0 0 0 0 0 0 0 0 0 0 0 0 0 0
0 0 0 0 0 0 0 0 0 0 0 0 0 0 0 0 0 0 0 0 0 0 0 0 0 0 0 0 0 0 1 2 1 0 0 0 0 0 0 0 0 0 0 0 0 0 0 0 0
0 0 0 0 0 0 0 0 0 0 0 0 0 0 0 0 0 0 0 0 0 0 0 0 0 0 0 0 0 0 0 1 1 0 0 0 0 0 0 0 0 0 0 0 0 0 0 0 0
0 0 0 0 0 0 0 0 0 0 0 0 0 0 0 0 0 0 0 0 0 0 0 0 0 0 0 0 0 0 0 0 0 0 0 0 1 1 1 0 0 0 0 0 0 0 0 0 0
0 0 0 0 0 0 0 0 0 0 0 0 0 0 0 0 0 0 0 0 0 0 0 0 0 0 0 0 0 0 0 0 0 1 0 0 1 2 1 0 0 0 0 0 0 0 0 0 0
0 0 0 0 0 0 0 0 0 0 0 0 0 0 0 0 0 0 0 0 0 0 0 0 0 0 0 0 0 0 0 0 0 0 0 0 0 1 1 0 0 0 0 0 0 0 0 0 0
0 0 0 0 0 0 0 0 0 0 0 0 0 0 0 0 0 0 0 0 0 0 0 0 0 0 0 0 0 0 0 0 0 0 0 0 0 0 0 0 0 0 0 0 0 0 0 0 0
0 0 0 0 0 0 0 0 0 0 0 0 0 0 0 0 0 0 0 0 0 0 0 0 0 0 0 0 0 0 0 0 0 0 0 0 0 0 0 0 0 0 0 0 1 1 1 0 0
0 0 0 0 0 0 0 0 0 0 0 0 0 0 0 0 0 0 0 0 0 0 0 0 0 0 0 0 0 0 0 0 0 0 0 0 0 0 0 0 0 0 0 1 2 2 2 1 0
0 0 0 0 0 0 0 0 0 0 0 0 0 0 0 0 0 0 0 0 0 0 0 0 0 0 0 0 0 0 0 0 0 0 0 0 1 0 0 0 0 0 0 1 2 3 2 1 0
0 0 0 0 0 0 0 0 0 0 0 0 0 0 0 0 0 0 0 0 0 0 0 0 0 0 0 0 0 0 0 0 0 0 0 0 0 0 0 0 1 1 1 1 2 3 2 1 0
0 0 0 0 0 0 0 0 0 0 0 0 0 0 0 0 0 0 0 0 0 0 0 0 0 0 0 0 0 0 0 0 0 0 0 0 0 0 0 0 2 3 3 2 2 3 2 0 0
0 0 0 0 0 0 0 0 0 0 0 0 0 0 0 0 0 0 0 0 0 0 0 0 0 0 0 0 0 0 0 0 0 0 0 0 0 0 0 0 1 2 4 3 2 2 1 0 0
0 0 0 0 0 0 0 0 0 0 0 0 0 0 0 0 0 0 0 0 0 0 0 0 0 0 0 0 0 0 0 0 0 0 0 0 0 0 0 0 0 1 2 2 1 0 0 0 0
0 0 0 0 0 0 0 0 0 0 0 0 0 0 0 0 0 0 0 0 0 0 0 0 0 0 0 0 0 0 0 0 0 0 0 0 0 0 0 0 0 0 1 1 0 0 0 0 0
0 0 0 0 0 0 0 0 0 0 0 0 0 0 0 0 0 0 0 0 0 0 0 0 0 0 0 0 0 0 0 0 0 0 0 0 0 0 0 0 0 0 0 0 0 0 0 0 0
0 0 0 0 0 0 0 0 0 0 0 0 0 0 0 0 0 0 0 0 0 0 0 0 0 0 0 0 0 0 0 0 0 0 0 0 0 0 0 0 0 0 0 0 1 0 0 0 0
0 0 0 0 0 0 0 0 0 0 0 0 0 0 0 0 0 0 0 0 0 0 0 0 0 0 0 0 0 0 0 0 0 0 0 0 0 0 0 1 1 1 0 0 0 0 0 1 1
0 0 0 0 0 0 0 0 0 0 0 0 0 0 0 0 0 0 0 0 0 0 0 0 0 0 0 0 0 0 0 0 0 0 0 0 0 0 0 1 1 1 0 0 0 0 1 2 2
0 0 0 0 0 0 0 0 0 0 0 0 0 0 0 0 0 0 0 0 0 0 0 0 0 0 0 0 0 0 0 0 0 0 0 0 0 0 1 1 1 0 0 0 0 0 1 2 3
0 0 0 0 0 0 0 0 0 0 0 0 0 0 0 0 0 0 0 0 0 0 0 0 0 0 0 0 0 0 0 0 0 0 0 0 0 0 1 1 1 0 0 0 0 0 1 1 2
0 0 0 0 0 0 0 0 0 0 0 0 0 0 0 0 0 0 0 0 0 0 0 0 0 0 0 0 0 0 0 0 0 0 0 0 0 0 0 0 0 0 0 0 0 0 1 1 1
0 0 0 0 0 0 0 0 0 0 0 0 0 0 0 0 0 0 0 0 0 0 0 0 0 0 0 0 0 0 0 0 0 0 0 0 0 0 0 0 0 0 0 0 0 0 1 0 0
Wind_Speed
5 4 2 2 4 6 4 5 3 3 4 3 6 7 6 5 3 1 2 3 4 4 3 5 7 8 8 7 7 7 8 7 7 7 7 7 7 6 6 5 5 5 4 3 3 4 4 4 4
4 3 2 4 6 4 4 5 5 5 2 2 5 6 7 6 4 2 2 1 4 5 3 4 7 7 8 8 7 7 7 7 7 7 6 6 6 6 5 5 5 4 4 4 3 3 3 3 3
4 2 3 4 4 2 2 4 3 4 7 4 4 6 5 5 5 3 2 2 4 3 2 3 7 7 7 7 7 7 7 7 7 7 7 6 6 6 6 5 5 4 4 4 3 3 2 2 2
3 3 4 6 5 2 2 3 4 3 6 8 4 6 5 5 5 4 3 3 3 2 1 2 6 6 7 7 7 7 7 7 7 7 7 7 6 6 6 6 6 5 5 4 4 3 2 1 1
3 4 5 4 3 2 3 5 5 6 5 7 5 5 4 6 7 6 6 5 4 3 3 3 1 3 5 6 7 7 7 7 7 7 7 7 7 7 7 7 7 6 6 5 4 4 3 2 1
4 4 5 2 2 1 2 5 4 6 5 6 5 4 4 6 8 6 6 6 5 5 4 4 4 3 3 4 6 7 8 8 9 9 9 8 8 8 8 8 7 7 6 6 5 5 4 3 2
4 4 4 3 2 2 3 3 5 4 5 6 5 4 3 6 7 6 6 5 6 5 5 4 4 4 5 5 5 6 8 9 9 9 10 10 9 9 9 9 8 8 7 7 6 6 5 4 3
4 5 4 2 2 1 3 3 4 6 4 4 5 5 3 4 5 5 7 7 6 6 6 6 5 5 5 5 7 7 7 7 8 9 10 10 10 10 10 9 9 9 9 8 8 7 6 5 5
3 5 2 2 3 2 2 3 4 4 5 5 6 4 3 4 4 6 7 7 6 7 5 5 5 5 5 5 6 7 7 7 7 7 10 9 5 5 5 8 10 11 10 10 9 8 7 6 4
4 4 2 1 3 4 3 4 3 4 5 5 5 6 6 6 7 8 7 7 6 6 6 5 5 5 5 4 4 3 4 4 3 3 4 3 3 4 6 7 12 12 12 11 10 10 8 5 1
4 4 3 3 4 5 4 3 3 4 5 3 2 3 5 7 7 7 6 5 5 4 6 6 5 5 5 3 3 2 2 2 3 4 4 3 3 3 4 3 5 6 8 5 6 5 3 2 2
6 4 3 4 3 4 4 4 4 4 3 2 3 3 4 6 5 5 4 4 4 5 6 6 6 5 5 4 3 3 2 2 3 3 4 2 2 3 3 3 3 3 3 3 3 3 4 3 3
5 3 4 6 8 7 7 5 4 3 3 3 4 5 5 4 3 3 3 4 4 5 6 6 6 5 5 4 4 4 3 3 3 3 3 3 2 3 3 3 3 4 3 4 4 4 4 4 4
5 7 6 5 6 4 6 3 3 2 3 4 4 4 3 3 3 3 4 5 5 5 6 6 6 5 5 4 4 4 4 3 3 3 3 3 3 3 3 3 3 4 3 4 4 5 4 4 3
6 7 4 2 2 3 4 3 1 2 4 4 3 3 3 3 3 3 3 4 4 5 6 6 7 6 6 6 5 4 4 4 3 3 4 4 3 3 3 3 3 3 3 4 3 4 3 3 3
4 4 1 2 2 3 3 1 1 2 5 3 2 2 2 2 3 3 3 4 4 5 6 6 7 7 7 6 5 4 4 4 3 3 3 4 4 3 3 3 3 3 3 3 3 3 3 3 3
2 2 3 2 4 3 3 3 2 2 4 3 1 1 2 3 3 3 4 4 4 5 5 6 7 7 7 7 5 5 4 4 3 3 3 4 4 4 3 3 3 3 3 3 4 3 3 3 3
5 4 3 4 3 4 3 2 2 2 3 3 1 1 2 3 4 5 5 5 5 5 5 6 7 7 7 5 4 4 4 3 3 3 3 4 4 4 3 3 3 3 3 3 3 3 3 3 3
4 4 3 1 2 3 3 3 2 2 2 3 2 2 3 4 4 5 5 5 5 5 6 6 7 7 6 4 4 4 4 4 4 3 4 4 4 3 3 3 2 3 3 4 4 3 3 3 3
5 5 2 1 2 2 1 2 2 3 3 4 4 4 3 4 5 5 5 5 5 6 6 6 6 7 6 4 4 3 4 4 3 3 4 4 3 3 3 3 2 3 2 3 4 4 3 2 3
2 4 4 3 2 3 2 4 3 2 1 2 2 3 3 4 5 6 6 6 6 6 7 6 7 7 7 6 4 4 3 3 3 4 4 4 4 4 3 3 2 2 3 3 4 4 5 3 3
1 1 4 5 4 1 1 4 5 3 3 3 4 4 4 5 4 5 6 7 6 7 6 6 7 7 7 6 5 5 4 4 4 4 4 5 4 4 3 3 2 2 2 3 4 4 4 4 4
2 4 4 3 3 1 0 1 7 1 4 6 6 5 5 5 5 6 6 6 6 6 6 6 6 6 6 6 5 5 4 4 4 4 5 4 4 4 3 2 2 2 2 3 3 3 4 4 4
5 7 6 6 5 2 2 3 7 4 6 5 4 5 5 5 5 6 6 5 5 6 6 6 6 7 7 7 6 5 6 6 6 6 5 4 3 3 4 3 2 2 2 2 3 3 4 4 4
6 6 5 5 4 5 2 3 9 5 6 5 5 5 5 5 5 5 6 6 6 7 7 6 6 7 7 7 6 6 6 5 5 5 5 4 3 3 4 3 2 2 2 2 2 2 3 4 5
3 7 6 3 4 5 2 5 7 3 3 3 3 3 4 5 5 5 6 5 6 6 6 6 6 6 7 7 6 6 6 4 4 4 4 4 3 3 4 3 2 2 2 2 2 2 2 3 4
4 2 4 6 1 3 5 6 7 1 2 2 3 3 5 5 5 5 5 5 5 5 5 5 6 6 6 6 6 6 6 6 6 5 4 4 4 4 5 4 3 3 2 2 1 1 2 2 3
4 7 5 4 2 4 7 5 5 5 7 6 5 6 6 5 5 5 5 5 4 4 4 4 5 5 5 6 6 5 6 6 6 5 6 6 5 5 6 5 4 3 3 2 1 1 1 2 2
3 4 5 4 4 4 4 8 6 6 6 7 7 6 6 6 6 5 4 4 4 4 4 4 5 5 5 6 6 6 6 6 6 5 6 6 5 6 5 5 5 4 3 2 1 1 1 1 1
3 5 7 4 3 4 3 10 5 5 6 6 7 6 5 5 5 4 4 4 4 4 4 4 4 4 4 5 5 6 6 6 6 7 7 6 6 6 6 5 5 4 4 3 1 1 0 1 2
Wind_Direction
137 110 92 64 48 48 25 346 351 31 47 37 49 65 76 62 58 86 323 110 130 136 156 166 169 168 168 167 166 165 166 164 162 160 159 156 159 157 155 155 156 156 153 146 138 128 115 104 92
125 118 69 58 68 50 7 350 23 36 78 102 56 54 62 52 33 25 6 91 132 142 152 168 177 177 176 177 178 177 177 175 172 171 170 169 168 170 172 173 171 170 167 162 157 145 127 110 92
130 86 78 64 67 76 8 349 14 41 43 42 62 50 54 28 358 344 326 130 134 145 153 184 185 185 185 185 186 188 188 188 188 188 187 184 184 185 187 186 185 185 181 177 174 166 153 122 88
98 54 54 65 67 34 357 329 331 5 39 29 63 63 63 26 347 351 22 71 103 103 131 205 193 194 196 195 196 199 200 201 201 200 198 197 198 200 201 198 195 197 198 196 194 197 193 179 90
65 75 61 59 52 27 4 354 21 35 41 22 46 72 48 5 16 42 46 47 52 41 25 360 254 222 217 214 212 212 212 213 213 212 210 210 212 214 213 209 207 205 206 208 205 214 220 229 260
59 66 74 81 61 22 12 7 29 38 32 18 30 74 61 11 23 30 40 43 48 46 27 15 359 345 308 263 242 230 226 225 224 223 221 220 222 222 221 220 217 217 215 214 213 222 234 244 262
98 86 101 120 99 30 23 35 36 23 35 17 4 68 63 17 18 28 41 47 47 39 29 12 355 343 330 313 289 262 245 239 234 234 231 228 228 229 228 229 226 224 224 224 222 226 239 249 258
120 99 90 109 131 90 2 54 51 36 36 15 27 59 30 359 14 45 46 42 38 36 30 14 3 358 345 327 312 302 284 266 253 245 242 239 237 236 235 234 233 230 230 233 231 232 239 246 253
87 78 122 184 168 138 26 76 59 52 56 45 44 55 41 19 38 50 44 34 26 22 16 9 0 354 346 330 329 326 311 297 285 265 256 248 241 243 243 242 240 239 238 238 236 236 239 244 254
75 103 145 122 139 128 78 72 85 70 49 44 48 42 39 42 45 47 40 28 16 5 357 360 352 345 340 336 334 323 319 311 305 292 274 254 233 232 238 244 248 248 246 243 239 237 239 240 227
73 106 115 93 116 117 103 78 47 102 59 42 60 40 37 45 44 44 34 22 6 353 354 351 345 339 336 328 322 317 311 304 298 294 283 265 247 242 243 237 253 254 254 246 241 238 216 196 192
85 58 93 120 112 92 100 105 76 66 104 90 86 71 59 50 39 28 22 8 355 356 347 340 341 341 336 331 320 310 314 312 304 295 291 276 253 239 233 235 237 235 233 228 218 207 204 201 203
87 98 67 88 86 87 86 81 95 83 96 87 81 65 59 55 36 15 10 2 355 350 343 336 334 336 332 329 322 327 313 304 299 297 292 283 263 254 243 236 234 232 224 220 214 207 206 207 208
104 97 92 83 84 82 95 81 89 124 108 88 72 58 51 43 24 13 3 353 347 341 338 333 330 333 332 327 317 309 306 301 296 290 285 282 262 255 248 243 237 232 225 222 216 212 208 208 203
97 89 70 68 87 122 109 59 81 144 108 85 64 55 49 31 21 6 343 338 334 330 329 330 330 340 332 323 313 310 300 297 290 285 282 276 262 252 249 243 239 232 222 219 214 211 198 206 207
85 95 137 221 156 162 134 193 214 132 119 105 80 49 32 1 352 336 335 333 331 329 327 326 337 337 329 322 311 304 302 298 291 289 287 283 273 259 251 246 243 233 222 212 207 200 193 206 205
99 164 200 194 183 161 155 199 205 142 135 139 136 10 347 331 329 324 325 326 325 326 324 326 329 329 326 321 312 305 302 298 295 293 290 286 280 269 251 247 249 236 224 217 219 202 187 204 206
203 199 195 197 184 142 154 195 184 149 150 166 191 274 302 312 307 313 319 321 320 321 323 325 326 327 325 320 319 315 313 309 301 293 291 292 283 277 261 247 245 232 220 217 210 198 190 198 192
156 154 163 187 137 134 172 199 212 173 164 196 229 262 287 295 299 311 316 319 321 325 331 328 328 327 332 330 328 322 318 313 311 303 300 300 295 286 267 262 246 228 221 219 208 187 187 194 158
113 125 133 84 82 113 142 256 246 204 204 211 222 244 269 295 309 315 318 322 324 322 325 325 325 324 328 322 307 288 288 290 288 299 314 311 309 299 280 253 244 230 225 217 203 182 169 183 167
104 156 174 161 73 58 73 317 262 251 209 223 237 249 269 278 292 308 316 316 323 324 323 325 322 324 325 325 318 315 311 308 321 325 323 318 314 305 292 270 246 233 217 217 209 196 181 185 188
168 194 145 133 116 293 121 289 282 243 256 251 252 262 272 283 292 302 309 314 319 316 320 322 323 325 326 331 335 334 328 316 305 307 306 313 316 314 309 301 281 252 233 225 218 205 193 181 185
134 74 92 103 116 45 25 229 287 276 258 258 251 251 261 274 287 297 301 305 311 316 324 325 328 328 331 339 340 336 328 308 305 310 316 321 322 323 322 316 307 278 249 236 226 208 194 189 184
107 70 56 50 67 331 233 187 279 234 227 247 243 244 256 273 289 297 304 315 316 321 330 333 336 331 337 343 345 346 339 334 335 334 331 328 323 327 334 326 317 294 269 247 232 213 201 200 191
72 79 31 2 6 263 252 208 254 251 228 221 229 242 255 270 283 295 307 316 318 324 331 336 339 333 339 345 347 346 343 340 338 333 332 334 331 329 327 329 318 297 278 263 242 215 210 200 197
101 125 147 204 243 286 304 246 257 263 239 221 223 238 260 272 276 284 292 300 307 316 327 334 335 332 339 345 343 344 346 344 337 333 331 328 323 316 320 324 318 305 291 274 243 223 215 202 200
117 109 153 131 180 289 288 286 302 224 245 238 245 255 261 267 275 282 293 302 306 313 319 328 332 334 339 344 344 348 349 350 344 340 338 334 333 333 342 340 337 327 313 291 246 228 222 204 201
111 139 98 106 137 295 300 285 263 250 243 243 243 247 256 266 277 286 292 299 306 307 315 333 337 334 338 345 348 351 346 346 345 349 350 347 344 344 343 343 341 337 336 327 281 235 231 200 199
111 93 102 109 147 161 291 279 232 227 224 223 233 238 245 255 267 275 284 293 303 315 329 338 340 342 345 346 345 350 347 348 351 354 349 345 345 346 344 341 339 338 335 328 303 251 241 206 196
173 162 146 148 208 169 198 269 270 242 236 221 231 240 245 250 258 268 281 298 310 319 326 329 331 336 338 340 345 349 347 351 357 354 349 349 347 346 346 345 343 343 340 335 335 279 223 202 196